Regional Weather Roundup
Issued by NWS

Home | Current Version | Previous Version | Text Only | Print | Product List | Glossary Off
Versions: 1 2 3 4 5 6 7 8 9 10 11 12 13 14 15 16 17 18 19 20 21 22 23 24 25 26 27 28 29 30 31 32 33 34 35 36 37 38 39 40 41 42 43 44 45 46 47 48 49 50

000
ASUS45 KTFX 230104
RWRMT
MONTANA HOURLY WEATHER ROUNDUP
NATIONAL WEATHER SERVICE GREAT FALLS MT
704 PM MDT TUE JUL 22 2014

NOTE: "FAIR" INDICATES FEW OR NO CLOUDS BELOW 12000 FEET WITH NO
SIGNIFICANT WEATHER AND/OR OBSTRUCTIONS TO VISIBILITY.

* THESE STATIONS ARE NOT UNDER NWS QUALITY CONTROL. THEY DO NOT
   REPORT WEATHER SUCH AS PRECIPITATION OR FOG.

MTZ001>007-043-230200-
WEST OF THE DIVIDE
CITY           SKY/WX    TMP DP  RH WIND       PRES   REMARKS
KALISPELL      RAIN      66  55  68 N/A       30.16R
MISSOULA       PTCLDY    82  48  31 N18G28    30.08S
BUTTE          MOCLDY    79  43  28 S10       30.23F
MULLAN PASS    PTCLDY    61  54  78 N6        30.29F
* ESSEX        N/A       72  55  55 S1         N/A
* LINCOLN      N/A       81  47  30 E5G14      N/A
* LOOKOUT PASS N/A       68  54  61 N4         N/A
* POLSON       N/A       69  54  59 NW2        N/A
* RONAN APT    MOCLDY    75  52  45 N11G16     N/A
* SEELEY LAKE  N/A       83  45  26 NW3G11     N/A
* THOMP F APT  MOCLDY    82  39  22 S9G20      N/A
* YAAK HILL    N/A       76  51  42 W1         N/A
$$

MTZ008-052>055-230200-
SOUTHWEST MONTANA
CITY           SKY/WX    TMP DP  RH WIND       PRES   REMARKS
BOZEMAN        PTCLDY    81  48  32 SE10      30.18F
DILLON         CLOUDY    79  50  36 SW7       30.18F
W YELLOWSTONE  MOCLDY    77  37  24 CALM      30.36S
* THREE FORKS  MOCLDY    81  55  41 N/A        N/A   HI  81
* BOULDER HILL N/A       72  51  48 NE1        N/A
* MONIDA PASS  N/A       78  38  24 S14G20     N/A
* RAYNOLDS PAS N/A       76  56  50 SE10       N/A
* WHITEHALL    N/A       87  56  35 N3G9       N/A
* WISE RIVER   N/A       80  34  19 SW8G20     N/A
$$

MTZ009>010-012-014-046-048-049-054-230200-
EAST SLOPES AND CENTRAL MONTANA
CITY           SKY/WX    TMP DP  RH WIND       PRES   REMARKS
CUT BANK       CLEAR     81  41  24 SE3       30.18S
GREAT FALLS    TSTM      81  57  44 N8        30.15R HI  81
HELENA         FAIR      82  55  40 S10G21    30.13F HI  81
MALMSTROM AFB  MOCLDY    84  46  26 E12       30.15S
* CONRAD       PTCLDY    79  57  47 NE5        N/A
* DEARBORN     N/A       73  61  66 NE2        N/A
* EAST GLACIER N/A       73  49  43 S6G12      N/A
* MONARCH      N/A       67  53  61 SE6G11     N/A
* PENDROY      N/A       79  46  31 E11        N/A
* SAINT MARY   N/A       78  47  34 W5G11      N/A
* SWEET GRASS  N/A       74  44  34 NE10       N/A
$$

MTZ011-013-016-021-035-040-045-047-050-051-230200-
NORTH CENTRAL MONTANA
CITY           SKY/WX    TMP DP  RH WIND       PRES   REMARKS
HAVRE          CLEAR     84  43  24 NE3       30.15S
LEWISTOWN      CLOUDY    79  54  42 E12       30.19F
* CHESTER      N/A       82  46  28 E3         N/A
* DENTON       N/A       76  53  45 NE11G16    N/A
* GEYSER       N/A       70  56  61 E6         N/A
* JUDITH GAP   N/A       77  48  36 SE1G11     N/A
* LOMA         N/A       84  47  28 NE17G22    N/A
$$

MTZ017>020-022>027-061-062-230200-
NORTHEAST MONTANA
CITY           SKY/WX    TMP DP  RH WIND       PRES   REMARKS
GLASGOW        PTCLDY    82  50  33 NE12      30.17S
GLENDIVE       MOCLDY    75  61  62 E7        30.19R
JORDAN         CLEAR     84  52  33 E9        30.17S
SIDNEY         CLOUDY    82  55  40 NE6       30.18S HI  81
WOLF POINT     PTCLDY    84  48  29 NE8       30.16F
* BEAVER HILL  N/A       72  61  68 NE4        N/A
* CIRCLE       N/A       81  54  39 NE10       N/A
* LINDSAY DVD  N/A       77  57  50 NE14       N/A
* NAVAJO       N/A       76  59  56 E7G12      N/A
$$

MTZ028>042-056>058-230200-
SOUTHCENTRAL AND SOUTHEAST MONTANA
CITY           SKY/WX    TMP DP  RH WIND       PRES   REMARKS
BAKER          MOCLDY    70 N/A N/A SE14      30.22R
BILLINGS       TSTM      82  55  40 N7        30.20R HI  81
LIVINGSTON     MOCLDY    79  52  39 N8        30.18F
MILES CITY     PTCLDY    79  61  54 NE15      30.17R
* LAUREL APT   CLOUDY    84  52  33 NW6        N/A
* ROUNDUP APT  MOCLDY    84  52  33 NE5        N/A
* ALZADA       N/A       79  61  54 E9         N/A
* HYSHAM       N/A       82  56  41 NE13G20    N/A   HI  82
* LAME DEER    N/A       78  56  47 N21G26     N/A
* REED POINT   N/A       64  61  90 SE4        N/A
* ROSCOE HILL  N/A       70  41  35 NW8G13     N/A
$$

REGIONAL REPORTS...DAKOTAS
CITY           SKY/WX    TMP DP  RH WIND       PRES   REMARKS
WILLISTON      MOCLDY    82  54  38 E12       30.17S
DICKINSON      LGT RAIN  70  63  79 CALM      30.26R
CROSBY         CLEAR     73  64  74 NE9       30.21S
TIOGA          CLEAR     75  64  69 E13       30.24S
WATFORD CITY   CLEAR     75  64  69 SE8       30.15F
BISMARCK       PTCLDY    77  63  62 E7        30.22R
GRAND FORKS    PTCLDY    73  61  66 N5        30.19R
FARGO          CLEAR     75  57  54 N10       30.19R
RAPID CITY     TSTM      77  63  62 NE12      30.24R
$$

REGIONAL REPORTS...WYOMING/IDAHO/WASHINGTON
CITY           SKY/WX    TMP DP  RH WIND       PRES   REMARKS
GILLETTE       CLEAR     82  54  38 E12       30.19R
SHERIDAN       PTCLDY    90  52  27 N9        30.15R
CODY           PTCLDY    86  46  25 NE7       30.21S
YELLOWSTONE LA MOCLDY    73  39  29 CALM      30.48F
SALMON         CLOUDY    88  43  21 W7        30.05S
MULLAN PASS    PTCLDY    61  54  78 N6        30.29S
SAND POINT     PTCLDY    72  54  53 N8        30.12F
SPOKANE        PTCLDY    79  54  42 NE8       30.08F

$$




USA.gov is the U.S. government's official web portal to all federal, state and local government web resources and services.